Regional Weather Roundup
Issued by NWS

Home | Current Version | Previous Version | Text Only | Print | Product List | Glossary Off
Versions: 1 2 3 4 5 6 7 8 9 10 11 12 13 14 15 16 17 18 19 20 21 22 23 24 25 26 27 28 29 30 31 32 33 34 35 36 37 38 39 40 41 42 43 44 45 46 47 48 49 50

000
ASUS43 KBIS 301410
RWRND

NORTH DAKOTA REGIONAL WEATHER ROUNDUP
NATIONAL WEATHER SERVICE BISMARCK ND
900 AM CDT SAT AUG 30 2014

NOTE: "FAIR" INDICATES FEW OR NO CLOUDS BELOW 12,000 FEET WITH NO
SIGNIFICANT WEATHER AND/OR OBSTRUCTIONS TO VISIBILITY.


NDZ001>003-009>011-017-301500-
NORTHWEST NORTH DAKOTA

CITY           SKY/WX    TMP DP  RH WIND       PRES   REMARKS
WILLISTON      SUNNY     60  53  77 SE9       29.85F
MINOT          SUNNY     54  50  86 E6        29.93S
MINOT AFB      SUNNY     54  54  99 S8        29.93S
$$

NDZ018>021-031>035-040>046-301500-
SOUTHWEST NORTH DAKOTA

CITY           SKY/WX    TMP DP  RH WIND       PRES   REMARKS
BISMARCK       FOG       49  49 100 CALM      29.97S VSB 1/4
DICKINSON      MOSUNNY   55  53  93 S17       29.89F
GARRISON         N/A     58  55  90 S9        29.93F
HETTINGER ARPT CLOUDY    55  53  93 SE12      29.93F
$$

NDZ004>008-012>016-024-026-027-054-301500-
NORTHEAST NORTH DAKOTA

CITY           SKY/WX    TMP DP  RH WIND       PRES   REMARKS
GRAND FORKS    SUNNY     54  51  90 N6        29.94F
GRND FRKS AFB  SUNNY     54  54  99 NE7       29.95F
DEVILS LAKE    SUNNY     54  46  76 NE5       29.95F
$$

NDZ022-023-025-028>030-036>039-047>053-301500-
SOUTHEAST NORTH DAKOTA

CITY           SKY/WX    TMP DP  RH WIND       PRES   REMARKS
FARGO          CLOUDY    56  52  86 N12       29.92S
JAMESTOWN      SUNNY     55  51  86 N3        29.96S
$$



USA.gov is the U.S. government's official web portal to all federal, state and local government web resources and services.